Regional Weather Roundup
Issued by NWS State College, PA

Home | Current Version | Previous Version | Text Only | Print | Product List | Glossary Off
Versions: 1 2 3 4 5 6 7 8 9 10 11 12 13 14 15 16 17 18 19 20 21 22 23 24 25 26 27 28 29 30 31 32 33 34 35 36 37 38 39 40 41 42 43 44 45 46 47 48 49 50

000
ASUS41 KCTP 151610
RWRCTP

REGIONAL WEATHER ROUNDUP
NATIONAL WEATHER SERVICE STATE COLLEGE PA
1200 PM EDT MON SEP 15 2014

Note: "fair" indicates few or no clouds below 12,000 feet with no
significant weather and/or obstructions to visibility.

* = STATION THAT DOES NOT REPORT PRECIPITATION /E.G. RAIN...SNOW...ETC/
    THUNDER OR FOG.

PAZ002>004-007>009-013>016-020>023-029>032-151700-
WESTERN PENNSYLVANIA

CITY           SKY/WX    TMP DP  RH WIND       PRES   REMARKS
ERIE           MOSUNNY   65  45  48 SW10      30.20F
MEADVILLE      PTSUNNY   62  46  55 S9        30.21S
FRANKLIN*      PTSUNNY   63  46  55 SW9       30.24R
NEW CASTLE     FAIR      65  49  56 S6        30.23S
BEAVER COUNTY  SUNNY     61  48  63 CALM      30.24R
BUTLER*        MOSUNNY   61  45  55 CALM      30.25S
PITTSBURGH INT MOSUNNY   63  44  50 CALM      30.23F
PITTSBURGH     MOSUNNY   62  44  51 VRB3      30.22F
INDIANA*       MOSUNNY   63  46  55 SW7       30.26F
LATROBE        SUNNY     63  48  59 S3        30.23F
WASHINGTON CO* SUNNY     63  46  55 SW6       30.24R
$$

PAZ004>006-010>012-017>019-024>028-033>037-041-042-045-046-049>053-151700-
CENTRAL PENNSYLVANIA

CITY           SKY/WX    TMP DP  RH WIND       PRES   REMARKS
BRADFORD       MOSUNNY   58  43  57 SW5       30.21F
DUBOIS         MOSUNNY   60  46  59 VRB3      30.21F
CLEARFIELD     SUNNY     58  48  69 VRB3      30.24F
JOHNSTOWN      MOSUNNY   59  46  62 NW6       30.23F
ALTOONA        PTSUNNY   64  46  52 SE7       30.24F
STATE COLLEGE  MOSUNNY   55  50  82 CALM      30.24F
WILLIAMSPORT   MOSUNNY   56  49  77 CALM      30.22F
SELINSGROVE    SUNNY     63  49  60 CALM      30.24F
FT INDIANTOWN  PTSUNNY   64  47  53 E3        30.23F
CAPITAL CITY   MOSUNNY   68  46  45 VRB3      30.24F
HARRISBURG     MOSUNNY   66  48  52 CALM      30.23
YORK           SUNNY     68  48  48 CALM      30.23F
$$

PAZ038>040-043-044-047-048-054-055-060>062-067>071-151700-
EASTERN PENNSYLVANIA

CITY           SKY/WX    TMP DP  RH WIND       PRES   REMARKS
SCRANTON       SUNNY     63  40  42 CALM      30.22F
MOUNT POCONO   MOSUNNY   58  41  53 CALM      30.23F
ALLENTOWN      SUNNY     66  43  43 N3        30.23F
QUAKERTOWN*    MOSUNNY   66  45  45 CALM      30.24F
READING        MOSUNNY   65  47  52 N3        30.23F
LANCASTER      SUNNY     66  45  46 CALM      30.24F
COATESVILLE    SUNNY     64  45  48 CALM      30.24F
POTTSTOWN      MOSUNNY   64  45  49 CALM      30.24F
BLUE BELL      SUNNY     68  45  42 CALM      30.22F
DOYLESTOWN     MOSUNNY   65  44  46 VRB3      30.22F
WILLOW GROVE   NOT AVBL
NORTH PHILA    SUNNY     68  43  40 E6        30.24F
PHILADELPHIA   MOSUNNY   69  45  41 SE6       30.23F
$$



USA.gov is the U.S. government's official web portal to all federal, state and local government web resources and services.